Regional Weather Roundup
Issued by NWS

Home | Current Version | Previous Version | Text Only | Print | Product List | Glossary Off
Versions: 1 2 3 4 5 6 7 8 9 10 11 12 13 14 15 16 17 18 19 20 21 22 23 24 25 26 27 28 29 30 31 32 33 34 35 36 37 38 39 40 41 42 43 44 45 46 47 48 49 50

000
ASUS43 KLMK 010210
RWRKY
KENTUCKY REGIONAL WEATHER ROUNDUP
NATIONAL WEATHER SERVICE LOUISVILLE KY
1000 PM EDT TUE JUN 30 2015

NOTE "FAIR" INDICATES FEW OR NO CLOUDS BELOW 12,000 FEET
WITH NO SIGNIFICANT WEATHER AND/OR OBSTRUCTIONS TO VISIBILITY.

KYZ001>023-026-027-061>063-070>075-010300-
WESTERN AND SOUTH CENTRAL KENTUCKY

CITY           SKY/WX    TMP DP  RH WIND       PRES   REMARKS
PADUCAH        PTCLDY    77  68  73 SW5       29.89R
HENDERSON      PTCLDY    73  66  78 SW6       29.87R
OWENSBORO      PTCLDY    73  69  87 SW5       29.88R
HOPKINSVILLE   CLEAR     75  70  83 SW7       29.91R
BOWLING GREEN  CLEAR     77  66  68 W3        29.91R
GLASGOW        NOT AVBL
$$

KYZ024-025-028>034-038-045-046-053-010300-
NORTH CENTRAL KENTUCKY

CITY           SKY/WX    TMP DP  RH WIND       PRES   REMARKS
LOUISVILLE/SDF CLOUDY    73  62  68 E7        29.87R
LOUISVILLE/LOU CLOUDY    71  61  70 S3        29.88R
FORT KNOX      PTCLDY    73  66  80 S5        29.88S
$$

KYZ035>037-039>044-047>052-055>060-089>105-010300-
NORTHEAST KENTUCKY

CITY           SKY/WX    TMP DP  RH WIND       PRES   REMARKS
LEXINGTON      MOCLDY    64  62  93 S3        29.91R
COVINGTON      PTCLDY    64  62  93 SW3       29.86R FOG
FRANKFORT      LGT RAIN  65  62  90 CALM      29.92R FOG
$$

KYZ054-064>069-076>088-106>120-010300-
SOUTHEAST KENTUCKY

CITY           SKY/WX    TMP DP  RH WIND       PRES   REMARKS
JACKSON        CLOUDY    60  58  92 CALM      29.96R FOG
LONDON         CLEAR     71  65  81 SE3       29.95R
SOMERSET       NOT AVBL
MIDDLESBORO    NOT AVBL
MONTICELLO     PTCLDY    71  71 100 CALM      29.96R
$$




USA.gov is the U.S. government's official web portal to all federal, state and local government web resources and services.